TimeMST,TemperatureF,Dew PointF,Humidity,Sea Level PressureIn,VisibilityMPH,Wind Direction,Wind SpeedMPH,Gust SpeedMPH,PrecipitationIn,Events,Conditions,WindDirDegrees,DateUTC
12:53 AM,18.0,15.1,88,30.19,9.0,ENE,5.8,-,N/A,,Overcast,70,2012-12-31 07:53:00
1:53 AM,17.1,12.9,84,30.20,9.0,ENE,8.1,-,N/A,,Overcast,70,2012-12-31 08:53:00
2:53 AM,16.0,12.0,84,30.21,10.0,ENE,6.9,-,N/A,,Overcast,70,2012-12-31 09:53:00
3:36 AM,15.8,12.2,86,30.09,9.0,ENE,6.9,-,N/A,,Overcast,70,2012-12-31 10:36:00
3:53 AM,16.0,12.0,84,30.19,9.0,East,8.1,-,N/A,,Overcast,80,2012-12-31 10:53:00
4:53 AM,16.0,12.0,84,30.18,9.0,ENE,5.8,-,0.00,,Overcast,60,2012-12-31 11:53:00
5:53 AM,15.1,10.9,84,30.18,9.0,ENE,8.1,-,N/A,,Overcast,60,2012-12-31 12:53:00
6:20 AM,14.0,10.4,86,30.07,9.0,ENE,9.2,-,N/A,,Overcast,70,2012-12-31 13:20:00
6:53 AM,14.0,10.0,84,30.17,10.0,East,6.9,-,N/A,,Overcast,80,2012-12-31 13:53:00
7:53 AM,15.1,10.9,84,30.17,10.0,ENE,6.9,-,N/A,,Overcast,70,2012-12-31 14:53:00
8:37 AM,15.8,10.4,79,30.05,10.0,East,5.8,-,N/A,,Overcast,90,2012-12-31 15:37:00
8:53 AM,15.1,10.9,84,30.17,10.0,ENE,5.8,-,N/A,,Overcast,70,2012-12-31 15:53:00
9:53 AM,16.0,12.0,84,30.17,10.0,ENE,6.9,-,N/A,,Overcast,60,2012-12-31 16:53:00
10:10 AM,17.6,12.2,79,30.07,10.0,ENE,6.9,-,N/A,,Overcast,60,2012-12-31 17:10:00
10:27 AM,17.6,12.2,79,30.07,10.0,East,5.8,-,N/A,,Overcast,80,2012-12-31 17:27:00
10:53 AM,17.1,12.0,81,30.18,10.0,ENE,6.9,-,N/A,,Overcast,70,2012-12-31 17:53:00
11:53 AM,17.1,12.0,81,30.16,10.0,East,5.8,-,N/A,,Overcast,80,2012-12-31 18:53:00
12:53 PM,18.0,12.9,81,30.14,10.0,East,3.5,-,N/A,,Overcast,80,2012-12-31 19:53:00
1:12 PM,17.6,12.2,79,30.03,10.0,Calm,Calm,-,N/A,,Overcast,0,2012-12-31 20:12:00
1:53 PM,19.0,14.0,81,30.14,10.0,Calm,Calm,-,N/A,,Overcast,0,2012-12-31 20:53:00
2:53 PM,19.9,14.0,78,30.14,10.0,Calm,Calm,-,N/A,,Overcast,0,2012-12-31 21:53:00
3:53 PM,19.0,14.0,81,30.14,10.0,Calm,Calm,-,N/A,,Overcast,0,2012-12-31 22:53:00
4:53 PM,19.0,14.0,81,30.15,10.0,Calm,Calm,-,N/A,,Overcast,0,2012-12-31 23:53:00
5:53 PM,19.4,15.8,86,30.05,6.0,Calm,Calm,-,N/A,,Overcast,0,2013-01-01 00:53:00
6:53 PM,19.0,17.1,92,30.17,3.0,Calm,Calm,-,N/A,,Overcast,0,2013-01-01 01:53:00
7:53 PM,19.4,17.6,93,30.06,6.0,Calm,Calm,-,N/A,,Overcast,0,2013-01-01 02:53:00
8:03 PM,19.4,17.6,93,30.06,7.0,Calm,Calm,-,N/A,,Overcast,0,2013-01-01 03:03:00
8:53 PM,19.9,18.0,92,30.17,7.0,Calm,Calm,-,N/A,,Overcast,0,2013-01-01 03:53:00
9:53 PM,19.4,17.6,93,30.07,7.0,Calm,Calm,-,N/A,,Overcast,0,2013-01-01 04:53:00
10:53 PM,18.0,17.1,96,30.19,1.2,South,3.5,-,N/A,,Overcast,190,2013-01-01 05:53:00
10:55 PM,17.6,17.6,100,30.08,0.8,South,3.5,-,N/A,,Overcast,190,2013-01-01 05:55:00
11:53 PM,16.0,15.1,96,30.19,0.5,SSW,4.6,-,N/A,Fog,Light Freezing Fog,200,2013-01-01 06:53:00